Home > Weather > Austin > Past weeks

Flag for USA Past Weather in Austin, Texas, USA — Yesterday and Last 2 Weeks

Now
92 °F

Scattered clouds.


Feels Like: 100 °F
Forecast: 75 / 97 °F
Wind: N/A

Location: Camp Mabry / Austin City

Current Time: Jun 30, 2016 at 2:42:51 PM

Latest Report: Jun 30, 2016 at 1:51 PM


Visibility: 10 mi

Pressure: 29.95 "Hg

Humidity: 52%

Dew Point: 72 °F

Location of AustinLocation

Past Weather in Austin — Graph

°F

Austin Temperature Yesterday

Maximum temperature yesterday: 95 °F (at 2:51 PM)
Minimum temperature yesterday: 72 °F (at 3:51 AM)
Average temperature yesterday: 83 °F

High & Low Weather Summary for the Past Weeks

 TemperatureHumidityPressure
High100 °F (Jun 28, 2:51 PM)97% (Jun 26, 4:51 AM)30.19 "Hg (Jun 26, 4:51 AM)
Low72 °F (Jun 29, 3:51 AM)37% (Jun 28, 2:51 PM)29.85 "Hg (Jun 15, 6:51 PM)
Average84 °F70%30.00 "Hg
* Reported Jun 15 12:51 PM — Jun 30 12:51 PM, Austin, Weather by CustomWeather, © 2016

Note: Actual official high and low records may vary slightly from our data, if they occured in-between our weather recording intervals... More about our weather records

Advertising

Austin Weather History for the Previous 24 Hours

Scroll right to see more
 ConditionsComfort  
Time TempWeatherWind HumidityBarometerVisibility
12:51 PM
Thu, Jun 30
91 °FPassing clouds.3 mph54%29.96 "Hg10 mi
11:51 AM89 °FScattered clouds.N/A55%29.98 "Hg10 mi
10:51 AM87 °FPartly sunny.5 mph61%29.99 "Hg10 mi
9:51 AM86 °FSunny.No wind67%29.98 "Hg10 mi
8:51 AM83 °FSunny.3 mph72%29.97 "Hg10 mi
7:51 AM79 °FSunny.No wind84%29.96 "Hg10 mi
6:51 AM77 °FClear.3 mph88%29.95 "Hg10 mi
5:51 AM77 °FClear.No wind88%29.94 "Hg10 mi
4:51 AM77 °FClear.No wind88%29.93 "Hg10 mi
3:51 AM78 °FClear.No wind84%29.93 "Hg10 mi
2:51 AM80 °FClear.No wind79%29.93 "Hg10 mi
1:51 AM81 °FPassing clouds.3 mph74%29.93 "Hg10 mi
12:51 AM81 °FClear.3 mph74%29.94 "Hg10 mi
11:51 PM
Wed, Jun 29
79 °FPassing clouds.No wind79%29.95 "Hg10 mi
10:51 PM84 °FClear.No wind65%29.95 "Hg10 mi
9:51 PM85 °FClear.3 mph63%29.93 "Hg10 mi
8:51 PM87 °FSunny.3 mph59%29.92 "Hg10 mi
7:51 PM88 °FPartly sunny.5 mph55%29.91 "Hg10 mi
6:51 PM90 °FPartly sunny.6 mph50%29.90 "Hg10 mi
5:51 PM92 °FScattered clouds.6 mph47%29.90 "Hg10 mi
4:51 PM94 °FPassing clouds.6 mph43%29.90 "Hg10 mi
3:51 PM91 °FPassing clouds.5 mph44%29.93 "Hg10 mi
2:51 PM95 °FScattered clouds.5 mph39%29.95 "Hg10 mi
Weather by CustomWeather, © 2016

See weather overviewHow to use our weather pages